[[{"header":{"parameterUnit":"m.s-1","parameterCategory":2,"la1":30.2991,"la2":30.254,"lo1":-89.0895,"lo2":-89.0444,"dy":0.0017,"dx":0.0017,"nx":28,"ny":28,"refTime":"2024-04-13T09:00:00:Z","depth":"0","parameterNumber":2,"parameterNumberName":"U-component_of_CURRENTS"},"data":[0,0,0,0,0,0,0,0,0,0,0,0,0,0,0,0,0,0,0,0,0,0,0,0,0,0,0,0,0,0,0,0,0,0,0,0,0,0,0,0,0,0,0,0,0,0,0,0,0,0,0,0,0,0,0,0,0,0,0.3229,0.3229,0,0.3228,0.3228,0.3228,0.3234,0.3234,0.3234,0.3235,0.3094,0.3089,0.3085,0,0,0,0,0,0,0,0,0,0,0,0,0,0.321,0.321,0.3229,0.3229,0.323,0.3228,0.3228,0.3228,0.3234,0.3234,0.3235,0.3235,0.3095,0.309,0.3085,0,0,0,0,0,0,0,0,0,0,0,0,0,0.3212,0.321,0.3229,0.3234,0.3235,0.3228,0.3228,0.3228,0.3233,0.3234,0.3235,0.3235,0.3096,0.309,0.3084,0.3034,0,0,0.3065,0.3063,0,0,0,0,0,0,0,0,0.3212,0.3213,0.3233,0.3234,0.3235,0.3234,0.317,0.3157,0.3233,0.3231,0.3235,0.3236,0.3129,0.312,0.3117,0.3027,0.3021,0.3065,0.3061,0.3058,0.3057,0,0,0,0,0,0,0,0.3212,0.3213,0.3226,0.3234,0.3234,0.3228,0.3229,0.3167,0.3172,0.3231,0.3233,0.3236,0.3128,0.3123,0.3113,0.3019,0.3065,0.3059,0.3056,0.3053,0.297,0.2972,0,0,0,0,0,0,0.3218,0.3213,0.3226,0.3226,0.3228,0.3228,0.3229,0.3231,0.3176,0.317,0.3236,0.3237,0.3133,0.312,0.3108,0.3102,0.3058,0.3053,0.3049,0.2969,0.2971,0.2972,0,0,0,0,0,0,0.3218,0.3219,0.3226,0.3222,0.3222,0.3228,0.3231,0.3231,0.3237,0.3181,0.3172,0.3243,0.3133,0.3117,0.3091,0.3094,0.305,0.3044,0.2967,0.2969,0.2972,0.3052,0,0,0,0,0,0,0.3217,0.3219,0.3218,0.3222,0.3223,0.324,0.323,0.3231,0.3239,0.324,0.3183,0.3171,0.3132,0.3101,0.3085,0.3085,0.3039,0.2965,0.2968,0.2971,0.3048,0.3057,0.3065,0,0,0,0,0,0.3216,0.3215,0.3218,0.3219,0.3223,0.3241,0.3241,0.3245,0.3239,0.325,0.3226,0.3173,0.3107,0.3097,0.3077,0.3076,0.2964,0.2967,0.2971,0.3044,0.3055,0.3065,0,0,0,0,0,0,0.3186,0.3216,0.3219,0.3221,0.3239,0.3244,0.3245,0.3249,0.3239,0.3232,0.3183,0.317,0.3153,0.3107,0.3097,0.3066,0.3029,0.3029,0.3091,0.3101,0.311,0.308,0.3034,0,0,0,0,0,0.3184,0.3202,0.3223,0.3222,0.3233,0.3239,0.3244,0.3251,0.3245,0.3242,0.3207,0.3171,0.3149,0.3122,0.3092,0.3057,0.3031,0.305,0.3058,0.3066,0.3032,0.3042,0.3048,0.2984,0.2984,0.2984,0,0,0.3169,0.3188,0.3195,0.322,0.3227,0.3233,0.3243,0.3257,0.3256,0.3222,0.3203,0.3196,0.3152,0.3138,0.3124,0.3097,0.3078,0.307,0.3077,0.3038,0.3046,0.3052,0.3057,0.2986,0.2986,0.2985,0,0,0.3142,0.3169,0.3171,0.3193,0.3218,0.3231,0.324,0.3255,0.326,0.3257,0.3242,0.3242,0.3191,0.3172,0.3153,0.3182,0.3133,0.318,0.3179,0.3191,0.3195,0.3199,0.3201,0.3204,0.3173,0.3173,0.3173,0,0.3117,0.3122,0.3172,0.3177,0.3186,0.3231,0.3225,0.3242,0.3246,0.3243,0.326,0.3229,0.3203,0.3179,0.3205,0.3196,0.3195,0.3143,0.3201,0.3203,0.3206,0.3207,0.3209,0.3177,0.3177,0.3177,0.3176,0,0.3086,0.3096,0.3101,0.3127,0.315,0.3158,0.3196,0.3213,0.3234,0.3245,0.3251,0.325,0.3225,0.324,0.3226,0.3229,0.3223,0.3223,0.3171,0.3217,0.3216,0.3217,0.3184,0.3182,0.3181,0.318,0,0,0.2994,0.3065,0.3059,0.3068,0.3124,0.3134,0.3155,0.3176,0.3178,0.3215,0.321,0.3222,0.3238,0.3217,0.322,0.3232,0.3274,0.3234,0.3233,0.323,0.3299,0.3265,0.3262,0.3295,0.3295,0.3295,0.3302,0,0.294,0.2947,0.2994,0.2993,0.3003,0.3064,0.3078,0.3112,0.3151,0.3167,0.3198,0.3203,0.3225,0.3229,0.3249,0.3269,0.3275,0.3271,0.3258,0.3256,0.3216,0.3261,0.3145,0.3139,0.3302,0.3302,0.3302,0,0.2873,0.2894,0.2891,0.294,0.2945,0.2954,0.2991,0.3014,0.3068,0.31,0.3131,0.316,0.3185,0.3208,0.3249,0.3251,0.3265,0.3286,0.3287,0.3211,0.3222,0.3114,0.3133,0.3057,0.3303,0.3303,0.3303,0,0.2782,0.2811,0.281,0.2826,0.2892,0.2892,0.2925,0.2983,0.3013,0.306,0.3097,0.3125,0.3165,0.3188,0.3251,0.3249,0.3301,0.3302,0.3275,0.3273,0.3142,0.3128,0.3068,0.3306,0.3306,0.3306,0.3306,0,0.271,0.2701,0.2768,0.2768,0.2762,0.283,0.284,0.2879,0.2949,0.2984,0.3056,0.3094,0.3169,0.322,0.3242,0.3272,0.3296,0.3263,0.327,0.3172,0.3161,0.306,0.302,0.3306,0.3306,0.3306,0.3306,0,0.2618,0.2663,0.2664,0.2715,0.2727,0.2726,0.2805,0.2818,0.2904,0.2954,0.2974,0.3087,0.3155,0.3219,0.3272,0.3271,0.3195,0.3284,0.3164,0.3155,0.3032,0.3,0.2828,0.2748,0.3232,0.3231,0.3231,0,0.2579,0.2572,0.2613,0.2615,0.2637,0.2663,0.2682,0.2775,0.2811,0.2947,0.296,0.3062,0.3127,0.321,0.3219,0.3238,0.3154,0.312,0.308,0.2996,0.2966,0.2878,0.2818,0.2952,0.2949,0.2947,0.2945,0,0.2499,0.2515,0.2525,0.2534,0.2545,0.257,0.2613,0.2639,0.2754,0.2814,0.2904,0.2972,0.3084,0.3066,0.311,0.3107,0.2962,0.3069,0.3007,0.2749,0.2619,0.2556,0.2984,0.2924,0.2926,0.2927,0.2929,0.2929,0.2436,0.2424,0.2443,0.2438,0.2454,0.2465,0.2461,0.2528,0.2579,0.265,0.2778,0.2837,0.2898,0.2955,0.2926,0.2815,0.2826,0.2724,0.2698,0.2622,0.2509,0.2888,0.2825,0.2826,0.2828,0.2829,0.283,0,0.2345,0.2346,0.2345,0.2341,0.2322,0.2368,0.2397,0.2387,0.2405,0.2504,0.2573,0.2616,0.2604,0.2628,0.2575,0.2468,0.2372,0.2388,0.2229,0.2194,0.2552,0.2506,0.2339,0.2339,0.2339,0.2339,0.2339,0.2339,0.2302,0.2266,0.2264,0.2206,0.2205,0.2164,0.2162,0.2162,0.2211,0.2217,0.2235,0.2297,0.2406,0.2379,0.226,0.2195,0.2027,0.1928,0.1936,0.2194,0.2223,0.2251,0.2199,0.1971,0.197,0.1502,0.1498,0.1495]},{"header":{"parameterUnit":"m.s-1","parameterCategory":2,"la1":30.2991,"la2":30.254,"lo1":-89.0895,"lo2":-89.0444,"dy":0.0017,"dx":0.0017,"nx":28,"ny":28,"refTime":"2024-04-13T09:00:00:Z","depth":"0","parameterNumber":3,"parameterNumberName":"V-component_of_CURRENTS"},"data":[0,0,0,0,0,0,0,0,0,0,0,0,0,0,0,0,0,0,0,0,0,0,0,0,0,0,0,0,0,0,0,0,0,0,0,0,0,0,0,0,0,0,0,0,0,0,0,0,0,0,0,0,0,0,0,0,0,0,-0.0162,-0.0163,0,-0.0193,-0.0193,-0.0194,-0.0229,-0.0229,-0.023,-0.023,-0.023,-0.023,-0.0229,0,0,0,0,0,0,0,0,0,0,0,0,0,-0.0154,-0.0154,-0.0162,-0.0163,-0.0163,-0.0193,-0.0194,-0.0194,-0.0229,-0.0229,-0.023,-0.023,-0.023,-0.023,-0.0229,0,0,0,0,0,0,0,0,0,0,0,0,0,-0.017,-0.0154,-0.0162,-0.0182,-0.0184,-0.0193,-0.0194,-0.0194,-0.0229,-0.0229,-0.023,-0.023,-0.023,-0.023,-0.0229,-0.0216,0,0,-0.0228,-0.0228,0,0,0,0,0,0,0,0,-0.0169,-0.0171,-0.0179,-0.0181,-0.0183,-0.0206,-0.019,-0.0199,-0.0229,-0.0214,-0.023,-0.0231,-0.0217,-0.0218,-0.0226,-0.0216,-0.0216,-0.0228,-0.0227,-0.0227,-0.0227,0,0,0,0,0,0,0,-0.0168,-0.017,-0.0177,-0.0179,-0.0182,-0.0197,-0.0199,-0.0193,-0.0213,-0.0215,-0.0217,-0.0218,-0.0219,-0.0226,-0.0226,-0.0216,-0.0228,-0.0227,-0.0227,-0.0227,-0.0195,-0.0194,0,0,0,0,0,0,-0.0159,-0.0168,-0.0175,-0.0177,-0.0175,-0.0196,-0.0199,-0.02,-0.0214,-0.0217,-0.0217,-0.0219,-0.0227,-0.0227,-0.0226,-0.0196,-0.0227,-0.0227,-0.0227,-0.0195,-0.0195,-0.0194,0,0,0,0,0,0,-0.0158,-0.0159,-0.0174,-0.0172,-0.0175,-0.0195,-0.0196,-0.02,-0.0207,-0.0216,-0.0218,-0.0219,-0.0227,-0.0227,-0.0221,-0.0197,-0.0227,-0.0226,-0.0196,-0.0195,-0.0194,-0.0145,0,0,0,0,0,0,-0.0158,-0.0159,-0.0156,-0.0171,-0.0174,-0.0172,-0.0195,-0.02,-0.0205,-0.0208,-0.0217,-0.0219,-0.0228,-0.0221,-0.022,-0.0197,-0.0226,-0.0197,-0.0195,-0.0194,-0.0148,-0.0143,-0.0139,0,0,0,0,0,-0.0158,-0.0146,-0.0155,-0.0156,-0.017,-0.0171,-0.0174,-0.0192,-0.0204,-0.0202,-0.0213,-0.0218,-0.0214,-0.0221,-0.0219,-0.0195,-0.0197,-0.0196,-0.0195,-0.015,-0.0144,-0.0139,0,0,0,0,0,0,-0.0135,-0.0149,-0.0159,-0.0152,-0.0159,-0.0176,-0.0173,-0.0187,-0.0195,-0.0196,-0.0212,-0.0213,-0.0199,-0.0205,-0.0213,-0.0184,-0.0206,-0.0204,-0.0172,-0.0166,-0.0162,-0.0144,-0.0225,0,0,0,0,0,-0.0129,-0.0128,-0.0142,-0.0134,-0.0136,-0.0155,-0.0158,-0.0169,-0.0178,-0.0183,-0.0191,-0.0196,-0.0192,-0.0187,-0.0189,-0.0169,-0.0183,-0.0154,-0.0149,-0.0146,-0.0131,-0.0136,-0.0131,-0.019,-0.019,-0.019,0,0,-0.0117,-0.0124,-0.0123,-0.0129,-0.0137,-0.0125,-0.0158,-0.0156,-0.0143,-0.0178,-0.0165,-0.0181,-0.0186,-0.017,-0.0163,-0.0171,-0.0139,-0.0144,-0.014,-0.0128,-0.0134,-0.0128,-0.0123,-0.0189,-0.0189,-0.0189,0,0,-0.0083,-0.0099,-0.0083,-0.0086,-0.0092,-0.0102,-0.0098,-0.0114,-0.0119,-0.0109,-0.0132,-0.0136,-0.013,-0.0132,-0.0129,-0.0099,-0.0118,-0.01,-0.0056,-0.0061,-0.0056,-0.0052,-0.0074,-0.0071,-0.0094,-0.0093,-0.0093,0,-0.0065,-0.005,-0.0077,-0.0059,-0.0052,-0.0086,-0.006,-0.0067,-0.0078,-0.0069,-0.0095,-0.0093,-0.0107,-0.0079,-0.0076,-0.0087,-0.0101,-0.0075,-0.0055,-0.0051,-0.0047,-0.007,-0.0069,-0.0091,-0.0091,-0.0092,-0.0092,0,-0.0017,-0.0005,0.0006,0.0016,0.0019,0.0034,0.0023,0.0026,0.0012,0.0006,0.0018,-0.0014,-0.0011,-0.0019,-0.0038,-0.0014,-0.0037,-0.0052,-0.0066,-0.0038,-0.0065,-0.0064,-0.0087,-0.0088,-0.0089,-0.009,0,0,0.0035,0.0039,0.0046,0.0063,0.006,0.0072,0.0095,0.0111,0.0137,0.011,0.014,0.0121,0.009,0.0089,0.0057,0.0049,0.0046,0.0012,0.0011,-0.0006,0.0024,-0.0003,-0.0005,0.0034,0.0034,0.0035,-0.001,0,0.0087,0.0133,0.0122,0.0172,0.0194,0.0175,0.0203,0.0211,0.0207,0.0223,0.0188,0.0195,0.0136,0.0131,0.0115,0.0068,0.0053,0.0059,-0.0004,-0.0006,-0.0029,-0.0003,0.0027,-0.0011,-0.0009,-0.0009,-0.0009,0,0.0146,0.0168,0.0222,0.0251,0.0261,0.0285,0.0324,0.0346,0.0355,0.035,0.0341,0.0302,0.0281,0.0222,0.016,0.0166,0.0102,0.0057,0.0054,0.0018,-0.0029,-0.0037,-0.001,-0.0125,-0.0008,-0.0008,-0.0008,0,0.0201,0.0242,0.0287,0.0297,0.0324,0.0351,0.0369,0.0389,0.0424,0.0427,0.0446,0.0402,0.0387,0.0308,0.0193,0.0181,0.0119,0.009,0.0006,0.0002,0.0011,0.0007,-0.0073,0.0051,0.0051,0.0051,0.0051,0,0.026,0.0299,0.0316,0.0343,0.0411,0.0407,0.0479,0.0491,0.052,0.0577,0.0512,0.0537,0.041,0.0348,0.0234,0.0123,0.0146,0.0024,-0.0002,0.0026,0.0024,-0.009,-0.0153,0.0049,0.005,0.005,0.005,0,0.031,0.0321,0.0377,0.0416,0.0437,0.0485,0.0548,0.0597,0.0614,0.0684,0.0686,0.0646,0.057,0.0427,0.0299,0.0186,0.0011,0.0021,0.0051,0.003,-0.0153,-0.0213,-0.0315,-0.0359,-0.0066,-0.0067,-0.0068,0,0.0336,0.0369,0.0433,0.0472,0.0492,0.0559,0.0611,0.0644,0.07,0.0757,0.0798,0.0743,0.0729,0.052,0.0307,0.0109,-0.0007,-0.0011,-0.0026,-0.015,-0.0236,-0.0284,-0.0317,-0.0005,-0.0005,-0.0005,-0.0005,0,0.0385,0.0407,0.0451,0.0533,0.0592,0.0669,0.0742,0.0803,0.0856,0.0925,0.0991,0.0985,0.079,0.0612,0.0322,0.0176,-0.0076,-0.0019,-0.0141,-0.0185,-0.0244,-0.0303,-0.0009,-0.0005,-0.0005,-0.0005,-0.0005,-0.0005,0.042,0.046,0.0515,0.0595,0.0668,0.0765,0.0839,0.0929,0.1043,0.1155,0.1136,0.1174,0.0886,0.051,0.0296,-0.0084,-0.009,-0.0191,-0.0252,-0.029,-0.0331,-0.005,-0.0081,-0.0081,-0.0082,-0.0082,-0.0082,0,0.0455,0.0499,0.0572,0.0666,0.0749,0.0784,0.0917,0.1004,0.1153,0.1268,0.1336,0.1227,0.0892,0.0525,0.0015,-0.0254,-0.0351,-0.0415,-0.0467,-0.0488,-0.0227,-0.0223,-0.0292,-0.0292,-0.0292,-0.0291,-0.0291,-0.0291,0.0474,0.054,0.0577,0.0712,0.0783,0.0904,0.0985,0.1132,0.1249,0.1407,0.1454,0.1448,0.1145,0.0249,-0.0356,-0.0493,-0.0659,-0.0714,-0.0817,-0.0636,-0.062,-0.0604,-0.0616,-0.0766,-0.0767,-0.1027,-0.103,-0.1032]}],[{"header":{"parameterUnit":"m.s-1","parameterCategory":2,"la1":30.2991,"la2":30.254,"lo1":-89.0895,"lo2":-89.0444,"dy":0.0017,"dx":0.0017,"nx":28,"ny":28,"refTime":"2024-04-13T09:00:00:Z","depth":"2","parameterNumber":2,"parameterNumberName":"U-component_of_CURRENTS"},"data":[0,0,0,0,0,0,0,0,0,0,0,0,0,0,0,0,0,0,0,0,0,0,0,0,0,0,0,0,0,0,0,0,0,0,0,0,0,0,0,0,0,0,0,0,0,0,0,0,0,0,0,0,0,0,0,0,0,0,0.2364,0.2364,0,0.235,0.235,0.2349,0.2345,0.2346,0.2346,0.2346,0.2351,0.2351,0.2351,0,0,0,0,0,0,0,0,0,0,0,0,0,0.2338,0.2338,0.2364,0.2364,0.2364,0.235,0.235,0.2349,0.2345,0.2346,0.2346,0.2346,0.2351,0.2351,0.2351,0,0,0,0,0,0,0,0,0,0,0,0,0,0.2337,0.2339,0.2364,0.2361,0.2361,0.235,0.235,0.2349,0.2345,0.2346,0.2346,0.2346,0.2351,0.2351,0.2351,0.2343,0,0,0.235,0.235,0,0,0,0,0,0,0,0,0.2337,0.2338,0.2362,0.2362,0.2361,0.2351,0.2342,0.2349,0.2345,0.2349,0.2346,0.2346,0.2354,0.2353,0.2347,0.2343,0.2343,0.235,0.235,0.235,0.235,0,0,0,0,0,0,0,0.2338,0.2338,0.2356,0.2362,0.2361,0.2344,0.2345,0.2343,0.2349,0.2349,0.2349,0.235,0.2354,0.2347,0.2347,0.2343,0.235,0.235,0.235,0.235,0.24,0.2401,0,0,0,0,0,0,0.2345,0.2339,0.2357,0.2356,0.2352,0.2345,0.2345,0.2353,0.2348,0.2348,0.235,0.235,0.2347,0.2348,0.2348,0.2398,0.235,0.235,0.235,0.2398,0.24,0.2402,0,0,0,0,0,0,0.2345,0.2347,0.2358,0.2348,0.2348,0.2345,0.2353,0.2352,0.2361,0.2349,0.2349,0.2362,0.2348,0.2348,0.2373,0.2396,0.235,0.235,0.2397,0.2399,0.2401,0.2461,0,0,0,0,0,0,0.2344,0.2347,0.2341,0.2349,0.2349,0.236,0.2353,0.2352,0.2361,0.2361,0.2359,0.2359,0.2348,0.2374,0.2373,0.2395,0.235,0.2395,0.2398,0.24,0.2457,0.2465,0.2471,0,0,0,0,0,0.2343,0.2335,0.2341,0.2342,0.2346,0.2361,0.236,0.2357,0.2361,0.2366,0.2379,0.236,0.239,0.2375,0.2374,0.2396,0.2394,0.2397,0.24,0.2454,0.2463,0.2471,0,0,0,0,0,0,0.2317,0.2334,0.2341,0.2337,0.2355,0.2361,0.2365,0.2367,0.2378,0.2386,0.2377,0.2378,0.2411,0.2397,0.2381,0.242,0.2389,0.2392,0.243,0.2439,0.2446,0.2429,0.235,0,0,0,0,0,0.2311,0.2325,0.2334,0.2344,0.2352,0.2364,0.2366,0.2371,0.2386,0.2391,0.2393,0.2402,0.2419,0.2425,0.2432,0.2449,0.2437,0.2464,0.2471,0.2477,0.2464,0.2483,0.2491,0.2412,0.2412,0.2412,0,0,0.2308,0.2322,0.2328,0.2341,0.236,0.2366,0.2367,0.2387,0.24,0.2391,0.2415,0.2428,0.2432,0.2459,0.2471,0.2451,0.2496,0.2481,0.2486,0.2469,0.2487,0.2495,0.2501,0.2414,0.2414,0.2413,0,0,0.231,0.2326,0.233,0.2344,0.2369,0.238,0.2391,0.2408,0.2423,0.2449,0.2454,0.2481,0.2496,0.2503,0.251,0.2558,0.2537,0.2568,0.2584,0.2604,0.261,0.2616,0.2618,0.2623,0.2566,0.2566,0.2566,0,0.2299,0.231,0.2334,0.2341,0.2356,0.2391,0.2397,0.2418,0.2441,0.2457,0.2466,0.2507,0.2514,0.2545,0.2568,0.2572,0.2576,0.2552,0.2613,0.2618,0.2622,0.2623,0.2628,0.257,0.2569,0.2569,0.2569,0,0.2293,0.2307,0.2323,0.2348,0.2363,0.2388,0.2419,0.2443,0.2475,0.249,0.2538,0.2557,0.2575,0.2594,0.2598,0.2636,0.2628,0.2624,0.2589,0.2633,0.2632,0.2636,0.2574,0.2573,0.2572,0.2571,0,0,0.2259,0.2305,0.231,0.2321,0.2372,0.238,0.2427,0.2462,0.2486,0.2527,0.2555,0.2603,0.2617,0.2625,0.264,0.266,0.2706,0.266,0.2659,0.2657,0.2745,0.2701,0.2701,0.2722,0.2723,0.2724,0.2735,0,0.2251,0.2261,0.229,0.2314,0.2325,0.2377,0.2412,0.2451,0.25,0.2536,0.258,0.2616,0.2631,0.2651,0.2677,0.2704,0.2717,0.2702,0.2705,0.2705,0.2656,0.2704,0.2492,0.2482,0.2738,0.2739,0.2739,0,0.2219,0.2238,0.2252,0.2299,0.2308,0.2327,0.2388,0.2425,0.2496,0.2535,0.2586,0.2619,0.267,0.2673,0.2729,0.2725,0.2734,0.2747,0.2748,0.2681,0.2667,0.2477,0.2478,0.2745,0.2744,0.2744,0.2744,0,0.2168,0.2206,0.222,0.2235,0.2291,0.2311,0.2351,0.2421,0.2465,0.2538,0.2579,0.2633,0.268,0.2705,0.2753,0.2745,0.2806,0.2792,0.2752,0.2749,0.2552,0.253,0.2811,0.2811,0.2811,0.2811,0.2811,0,0.2138,0.2146,0.2195,0.22,0.2221,0.2274,0.2317,0.2365,0.2448,0.2496,0.2575,0.2621,0.2697,0.2747,0.276,0.2779,0.2814,0.2754,0.2752,0.2569,0.2549,0.2759,0.2752,0.2811,0.2811,0.2811,0.2811,0,0.2079,0.2115,0.2127,0.2181,0.2198,0.2213,0.2301,0.2328,0.2424,0.2491,0.2519,0.2634,0.2699,0.2758,0.2807,0.2793,0.2803,0.2793,0.2571,0.2542,0.2722,0.2719,0.2733,0.2732,0.2731,0.273,0.2729,0,0.2051,0.2051,0.2098,0.2107,0.2134,0.2176,0.2204,0.2302,0.2343,0.2488,0.2506,0.2615,0.2667,0.2738,0.2728,0.2731,0.2788,0.2526,0.2464,0.272,0.2717,0.2715,0.2714,0.2226,0.2221,0.2217,0.2214,0,0.1998,0.2017,0.203,0.205,0.2072,0.21,0.2153,0.2183,0.2299,0.2357,0.2437,0.2495,0.2591,0.2509,0.2543,0.2515,0.2509,0.2445,0.2769,0.2291,0.2246,0.2242,0.2256,0.2179,0.2182,0.2185,0.2187,0.2188,0.1958,0.1953,0.1973,0.1979,0.2002,0.2009,0.2001,0.2061,0.2104,0.2167,0.2288,0.2301,0.234,0.2284,0.2218,0.2172,0.2345,0.2221,0.2231,0.2246,0.2198,0.2154,0.206,0.2062,0.2065,0.2067,0.2069,0,0.1892,0.1892,0.1898,0.1894,0.1873,0.1923,0.1943,0.1911,0.1904,0.1994,0.204,0.1897,0.1861,0.1903,0.1781,0.1787,0.1754,0.1706,0.163,0.1668,0.1701,0.1622,0.1333,0.133,0.1328,0.1326,0,0,0.1859,0.1828,0.1822,0.176,0.1759,0.1702,0.1689,0.1656,0.1678,0.1652,0.1645,0.1792,0.1857,0.1565,0.1532,0.1405,0.1524,0.1355,0.1951,0.19,0.193,0.2011,0.1936,0,0,0,0,0]},{"header":{"parameterUnit":"m.s-1","parameterCategory":2,"la1":30.2991,"la2":30.254,"lo1":-89.0895,"lo2":-89.0444,"dy":0.0017,"dx":0.0017,"nx":28,"ny":28,"refTime":"2024-04-13T09:00:00:Z","depth":"2","parameterNumber":3,"parameterNumberName":"V-component_of_CURRENTS"},"data":[0,0,0,0,0,0,0,0,0,0,0,0,0,0,0,0,0,0,0,0,0,0,0,0,0,0,0,0,0,0,0,0,0,0,0,0,0,0,0,0,0,0,0,0,0,0,0,0,0,0,0,0,0,0,0,0,0,0,0.012,0.012,0,0.0091,0.0091,0.009,0.0073,0.0073,0.0073,0.0073,0.0043,0.0043,0.0042,0,0,0,0,0,0,0,0,0,0,0,0,0,0.0128,0.0128,0.012,0.012,0.0119,0.0091,0.0091,0.009,0.0073,0.0073,0.0073,0.0073,0.0044,0.0043,0.0042,0,0,0,0,0,0,0,0,0,0,0,0,0,0.0114,0.0128,0.012,0.0108,0.0107,0.0091,0.0091,0.009,0.0073,0.0073,0.0073,0.0073,0.0044,0.0043,0.0042,0.0036,0,0,0.0038,0.0038,0,0,0,0,0,0,0,0,0.0115,0.0114,0.011,0.0109,0.0107,0.0086,0.0083,0.0072,0.0073,0.0085,0.0073,0.0073,0.0058,0.0056,0.005,0.0034,0.0033,0.0038,0.0037,0.0037,0.0037,0,0,0,0,0,0,0,0.0116,0.0114,0.0108,0.011,0.0108,0.0093,0.0091,0.008,0.0072,0.0084,0.0083,0.0081,0.0057,0.0051,0.0049,0.0033,0.0038,0.0037,0.0036,0.0036,0.0014,0.0014,0,0,0,0,0,0,0.0122,0.0116,0.0109,0.0107,0.0111,0.0093,0.0091,0.0093,0.0072,0.0069,0.0081,0.008,0.0053,0.005,0.0048,0.0054,0.0037,0.0036,0.0035,0.0014,0.0014,0.0014,0,0,0,0,0,0,0.0122,0.0122,0.011,0.0111,0.0108,0.0093,0.0095,0.0092,0.0088,0.0069,0.0066,0.008,0.0053,0.0049,0.0041,0.0052,0.0035,0.0034,0.0014,0.0014,0.0014,0.0056,0,0,0,0,0,0,0.0123,0.0122,0.0128,0.0112,0.0109,0.0112,0.0095,0.0092,0.0087,0.0086,0.0068,0.0065,0.0052,0.0043,0.004,0.005,0.0033,0.0014,0.0014,0.0014,0.0055,0.0058,0.0061,0,0,0,0,0,0.0123,0.0137,0.0128,0.0127,0.0116,0.0112,0.011,0.0098,0.0087,0.0092,0.0075,0.0066,0.0042,0.0042,0.0039,0.0049,0.0014,0.0014,0.0014,0.0054,0.0057,0.0061,0,0,0,0,0,0,0.0144,0.0136,0.0126,0.0137,0.0128,0.011,0.0113,0.0101,0.009,0.0087,0.0067,0.0063,0.0059,0.0046,0.0046,0.0042,0.0026,0.0026,0.0058,0.0061,0.0064,0.0082,0.0033,0,0,0,0,0,0.015,0.0158,0.0144,0.0152,0.0148,0.0129,0.0125,0.0116,0.0103,0.0098,0.0083,0.0067,0.0056,0.0053,0.004,0.0039,0.0022,0.0042,0.0045,0.0047,0.0059,0.0038,0.004,0.0015,0.0015,0.0015,0,0,0.016,0.0156,0.016,0.0156,0.0146,0.0152,0.0127,0.0125,0.0131,0.0097,0.0099,0.0076,0.0057,0.0055,0.0052,0.0047,0.0044,0.0048,0.005,0.006,0.0039,0.0041,0.0043,0.0015,0.0015,0.0015,0,0,0.0184,0.0179,0.0193,0.019,0.018,0.017,0.0172,0.0155,0.0149,0.0146,0.012,0.0104,0.009,0.0076,0.0069,0.0079,0.0058,0.0074,0.0108,0.0088,0.009,0.0091,0.0069,0.0069,0.0079,0.0079,0.0079,0,0.0196,0.0211,0.0196,0.0207,0.0211,0.0182,0.0198,0.0189,0.0171,0.0171,0.0155,0.0124,0.0102,0.01,0.0103,0.0087,0.0072,0.0098,0.0092,0.0094,0.0095,0.0071,0.007,0.0081,0.0081,0.0081,0.008,0,0.0229,0.0241,0.0249,0.0256,0.0258,0.0266,0.0253,0.0252,0.0237,0.0225,0.0215,0.0177,0.0163,0.0148,0.013,0.0128,0.0113,0.0097,0.0087,0.01,0.0074,0.0072,0.0084,0.0083,0.0083,0.0082,0,0,0.0261,0.0271,0.0276,0.0289,0.0285,0.0294,0.0303,0.0307,0.032,0.0289,0.0299,0.0262,0.0235,0.0223,0.0189,0.0169,0.0154,0.0143,0.014,0.0127,0.011,0.0094,0.0089,0.0138,0.0138,0.0138,0.0087,0,0.0292,0.0327,0.0324,0.0359,0.0377,0.0362,0.0379,0.0376,0.0366,0.0367,0.0321,0.0314,0.0266,0.0257,0.0229,0.0176,0.0152,0.017,0.0094,0.0092,0.0081,0.0088,0.011,0.0067,0.0085,0.0085,0.0085,0,0.033,0.035,0.0391,0.0418,0.0425,0.0441,0.0466,0.0478,0.0468,0.0459,0.0435,0.0396,0.036,0.0315,0.0234,0.0249,0.0188,0.014,0.0136,0.0108,0.0073,0.0056,0.0062,0.0081,0.0081,0.0082,0.0082,0,0.0367,0.04,0.0437,0.0446,0.0469,0.0488,0.0502,0.0506,0.053,0.0516,0.0527,0.0466,0.0446,0.0362,0.0256,0.0249,0.0165,0.0139,0.0064,0.0062,0.006,0.0058,0.0083,0.0084,0.0084,0.0084,0.0084,0,0.0407,0.0438,0.0458,0.048,0.0534,0.0532,0.0585,0.0589,0.0603,0.0643,0.0578,0.0588,0.0459,0.0391,0.0285,0.0172,0.0183,0.0076,0.0051,0.0074,0.0074,0.0071,0.0071,0.0082,0.0082,0.0083,0.0083,0,0.0443,0.0455,0.0502,0.0535,0.0554,0.0592,0.0647,0.0683,0.0688,0.0738,0.0737,0.0684,0.0599,0.046,0.0323,0.0219,0.0103,0.0057,0.009,0.0071,0.0005,0.0007,-0.0026,-0.0026,-0.0027,-0.0028,-0.0028,0,0.0463,0.049,0.0547,0.0582,0.06,0.0656,0.0701,0.0726,0.0771,0.0803,0.0832,0.0765,0.0733,0.0519,0.0321,0.0131,0.0101,0.0021,0.0007,0.0017,-0.0004,-0.0001,0.0002,0.0016,0.0016,0.0016,0.0016,0,0.0499,0.0519,0.0558,0.0631,0.0684,0.0755,0.0819,0.087,0.0911,0.0954,0.0991,0.0968,0.0769,0.0581,0.0313,0.0185,0.0051,0.0012,0.0018,0.0042,0.0053,0.0033,0.0036,0.0015,0.0015,0.0015,0.0015,0.0015,0.0526,0.0561,0.0613,0.0684,0.0751,0.0843,0.0912,0.0983,0.1072,0.114,0.1109,0.1077,0.0856,0.052,0.0287,0.004,0.0056,-0.0031,-0.0029,-0.0028,-0.0012,-0.0003,-0.0049,-0.0049,-0.0049,-0.005,-0.005,0,0.0556,0.0598,0.0661,0.075,0.0827,0.0861,0.0984,0.1057,0.1171,0.1214,0.1241,0.1035,0.0819,0.0557,0.0197,-0.0014,-0.0028,-0.0086,-0.0055,-0.0052,-0.005,-0.0035,-0.0078,-0.0079,-0.008,-0.008,0,0,0.0573,0.0634,0.0668,0.0795,0.0863,0.0982,0.1061,0.117,0.1233,0.1286,0.126,0.1205,0.0893,0.0626,0.0337,0.0126,0.0086,0.0085,0.0134,0.0209,0.0214,0.001,0.0041,0,0,0,0,0]}],[{"header":{"parameterUnit":"m.s-1","parameterCategory":2,"la1":30.2991,"la2":30.254,"lo1":-89.0895,"lo2":-89.0444,"dy":0.0017,"dx":0.0017,"nx":28,"ny":28,"refTime":"2024-04-13T09:00:00:Z","depth":"4","parameterNumber":2,"parameterNumberName":"U-component_of_CURRENTS"},"data":[0,0,0,0,0,0,0,0,0,0,0,0,0,0,0,0,0,0,0,0,0,0,0,0,0,0,0,0,0,0,0,0,0,0,0,0,0,0,0,0,0,0,0,0,0,0,0,0,0,0,0,0,0,0,0,0,0,0,0.1307,0.1308,0,0.1345,0.1345,0.1345,0.1388,0.1388,0.1389,0.139,0.1485,0.1486,0.1488,0,0,0,0,0,0,0,0,0,0,0,0,0,0.1265,0.1265,0.1307,0.1308,0.1308,0.1345,0.1345,0.1345,0.1387,0.1388,0.139,0.1391,0.1484,0.1486,0.1488,0,0,0,0,0,0,0,0,0,0,0,0,0,0.1288,0.1265,0.1307,0.1336,0.1339,0.1345,0.1345,0.1345,0.1387,0.1389,0.139,0.1391,0.1483,0.1486,0.1488,0.1476,0,0,0.1496,0.1497,0,0,0,0,0,0,0,0,0.1286,0.1289,0.1331,0.1334,0.1338,0.1366,0.1365,0.1393,0.1387,0.1366,0.139,0.1392,0.1451,0.1456,0.1455,0.1481,0.1485,0.1496,0.1498,0.1499,0.1499,0,0,0,0,0,0,0,0.1285,0.1288,0.1319,0.1332,0.1336,0.1346,0.135,0.137,0.1399,0.1368,0.1372,0.138,0.1453,0.1452,0.1458,0.1486,0.1496,0.1498,0.15,0.1501,0.1616,0.1618,0,0,0,0,0,0,0.1285,0.1286,0.1318,0.132,0.1319,0.1346,0.135,0.1353,0.1397,0.1406,0.1379,0.1382,0.1448,0.1455,0.1461,0.1546,0.1499,0.1501,0.1502,0.1615,0.1617,0.1618,0,0,0,0,0,0,0.1284,0.1287,0.1316,0.1307,0.1312,0.1345,0.1347,0.1353,0.1389,0.1406,0.1416,0.1415,0.1449,0.1458,0.1505,0.1547,0.1502,0.1504,0.1613,0.1615,0.1617,0.1655,0,0,0,0,0,0,0.1282,0.1286,0.1304,0.1307,0.1312,0.1343,0.1346,0.1353,0.1392,0.1397,0.1439,0.1447,0.1451,0.1502,0.1508,0.155,0.1506,0.1611,0.1614,0.1617,0.1652,0.1658,0.1664,0,0,0,0,0,0.1281,0.1294,0.1305,0.131,0.133,0.1344,0.1348,0.1374,0.1393,0.1412,0.1439,0.1448,0.1526,0.1504,0.1512,0.1555,0.1609,0.1613,0.1617,0.1649,0.1657,0.1664,0,0,0,0,0,0,0.1287,0.13,0.1312,0.133,0.1349,0.1354,0.1377,0.1393,0.1427,0.1444,0.1459,0.1468,0.1529,0.1535,0.1511,0.1598,0.1573,0.1578,0.1595,0.1603,0.1609,0.1612,0.1508,0,0,0,0,0,0.1295,0.131,0.1323,0.1341,0.1353,0.1371,0.1388,0.1406,0.1428,0.1446,0.1474,0.1508,0.1542,0.1567,0.1593,0.1634,0.1635,0.167,0.1676,0.1681,0.169,0.1721,0.173,0.163,0.163,0.163,0,0,0.13,0.1313,0.1321,0.1345,0.136,0.1379,0.1385,0.1418,0.1444,0.1451,0.1505,0.1532,0.1558,0.1606,0.1635,0.1621,0.1709,0.1685,0.169,0.1696,0.1725,0.1735,0.1743,0.1632,0.1632,0.1632,0,0,0.1309,0.1332,0.1346,0.1365,0.14,0.1408,0.1427,0.1453,0.1481,0.1524,0.1543,0.1592,0.1639,0.1664,0.1682,0.1738,0.1741,0.1759,0.1794,0.1824,0.1832,0.1839,0.1844,0.1851,0.1761,0.1761,0.1762,0,0.1322,0.1337,0.1354,0.1376,0.1397,0.1426,0.1449,0.1474,0.1516,0.1546,0.1553,0.164,0.1664,0.1724,0.1748,0.1753,0.1763,0.1761,0.1831,0.1838,0.1845,0.1848,0.1856,0.1764,0.1763,0.1763,0.1763,0,0.1332,0.1359,0.1371,0.1404,0.143,0.1456,0.149,0.1531,0.1569,0.1596,0.1673,0.1701,0.1755,0.1776,0.1781,0.1852,0.1841,0.1833,0.1808,0.1857,0.1857,0.1865,0.1767,0.1766,0.1765,0.1765,0,0,0.132,0.1368,0.1377,0.1397,0.145,0.1466,0.1522,0.1573,0.1618,0.1671,0.1729,0.1794,0.1824,0.1847,0.1867,0.1897,0.1951,0.1894,0.1895,0.1892,0.2009,0.1884,0.188,0.1961,0.1962,0.1964,0.1985,0,0.1326,0.1364,0.1391,0.1433,0.1452,0.1502,0.1547,0.1605,0.1658,0.1721,0.1775,0.1838,0.1846,0.1885,0.1919,0.1952,0.1975,0.1945,0.1968,0.1969,0.1846,0.1886,0.197,0.1991,0.1992,0.1993,0.1994,0,0.1324,0.1351,0.1391,0.1446,0.1461,0.1499,0.1581,0.1628,0.1722,0.1767,0.1843,0.1885,0.1962,0.195,0.2025,0.201,0.2018,0.2026,0.2027,0.1904,0.1858,0.1935,0.2007,0.2006,0.2005,0.2004,0.2004,0,0.1291,0.1349,0.1381,0.14,0.1469,0.1512,0.1562,0.1653,0.1706,0.1811,0.1864,0.1944,0.2003,0.2034,0.2072,0.2058,0.2132,0.2106,0.1994,0.1985,0.2072,0.2065,0.2145,0.2145,0.2145,0.2145,0.2145,0,0.1269,0.1299,0.1374,0.1391,0.1444,0.1504,0.1578,0.1641,0.1743,0.1802,0.1895,0.1946,0.2034,0.2086,0.2092,0.2069,0.215,0.2005,0.1987,0.2086,0.208,0.2077,0.2068,0.2146,0.2145,0.2145,0.2145,0,0.1222,0.1271,0.1312,0.1396,0.1429,0.1473,0.1585,0.1629,0.1741,0.1824,0.1864,0.1979,0.2035,0.2094,0.2145,0.2086,0.2077,0.2045,0.2149,0.2136,0.1898,0.1892,0.1905,0.19,0.1897,0.1894,0.1892,0,0.1196,0.1214,0.1309,0.1339,0.1383,0.146,0.1506,0.162,0.1664,0.1819,0.184,0.1952,0.2008,0.1976,0.2045,0.2038,0.2017,0.199,0.1938,0.1895,0.1877,0.1876,0.1875,0.1886,0.1885,0.1884,0.1883,0,0.1148,0.1197,0.1232,0.1294,0.1347,0.1392,0.1469,0.1494,0.1616,0.1735,0.1769,0.18,0.1859,0.1887,0.1908,0.1899,0.1994,0.1953,0.1959,0.191,0.1873,0.1858,0.1861,0.1871,0.1873,0.1874,0.1875,0,0.1121,0.1133,0.1188,0.1228,0.1288,0.13,0.1353,0.1394,0.1454,0.1615,0.1619,0.173,0.1835,0.1815,0.1831,0.182,0.178,0.1706,0.1724,0.1738,0.1676,0.1603,0.1507,0,0,0,0,0,0.1083,0.108,0.1114,0.1141,0.1193,0.1224,0.131,0.1363,0.1482,0.1459,0.1535,0.1575,0.1604,0.1662,0.1614,0.1759,0.1791,0.1695,0.1717,0.1805,0.1818,0.1761,0,0,0,0,0,0,0.1054,0.1083,0.1082,0.1057,0.1058,0.1096,0.1144,0.1225,0.1218,0.1349,0.1371,0.147,0.1522,0.161,0.158,0.1597,0.1575,0.1766,0.1761,0.1797,0.1809,0.182,0.1766,0,0,0,0,0]},{"header":{"parameterUnit":"m.s-1","parameterCategory":2,"la1":30.2991,"la2":30.254,"lo1":-89.0895,"lo2":-89.0444,"dy":0.0017,"dx":0.0017,"nx":28,"ny":28,"refTime":"2024-04-13T09:00:00:Z","depth":"4","parameterNumber":3,"parameterNumberName":"V-component_of_CURRENTS"},"data":[0,0,0,0,0,0,0,0,0,0,0,0,0,0,0,0,0,0,0,0,0,0,0,0,0,0,0,0,0,0,0,0,0,0,0,0,0,0,0,0,0,0,0,0,0,0,0,0,0,0,0,0,0,0,0,0,0,0,0.0147,0.0147,0,0.0126,0.0126,0.0126,0.0123,0.0123,0.0123,0.0124,0.0109,0.0108,0.0108,0,0,0,0,0,0,0,0,0,0,0,0,0,0.0149,0.0149,0.0148,0.0147,0.0147,0.0126,0.0126,0.0126,0.0123,0.0123,0.0124,0.0124,0.0109,0.0108,0.0108,0,0,0,0,0,0,0,0,0,0,0,0,0,0.014,0.0149,0.0148,0.0143,0.0142,0.0126,0.0126,0.0126,0.0123,0.0123,0.0124,0.0124,0.0109,0.0108,0.0107,0.0097,0,0,0.0105,0.0104,0,0,0,0,0,0,0,0,0.0141,0.014,0.0144,0.0143,0.0142,0.0127,0.0121,0.0116,0.0123,0.0131,0.0124,0.0124,0.0115,0.0114,0.011,0.0096,0.0095,0.0105,0.0104,0.0104,0.0104,0,0,0,0,0,0,0,0.0141,0.0141,0.0139,0.0144,0.0143,0.0129,0.0129,0.012,0.0122,0.013,0.013,0.0127,0.0115,0.011,0.0109,0.0095,0.0105,0.0104,0.0104,0.0103,0.0076,0.0076,0,0,0,0,0,0,0.0145,0.0142,0.014,0.0139,0.0142,0.0129,0.0128,0.0132,0.0122,0.012,0.0127,0.0127,0.0112,0.011,0.0109,0.0109,0.0104,0.0103,0.0103,0.0076,0.0076,0.0076,0,0,0,0,0,0,0.0145,0.0145,0.0141,0.0139,0.0137,0.0129,0.0133,0.0132,0.0132,0.0119,0.0118,0.0129,0.0112,0.011,0.0105,0.0108,0.0103,0.0102,0.0076,0.0076,0.0076,0.0101,0,0,0,0,0,0,0.0146,0.0146,0.0151,0.014,0.0138,0.014,0.0133,0.0131,0.0129,0.0129,0.012,0.0119,0.0112,0.0106,0.0104,0.0107,0.0101,0.0077,0.0076,0.0076,0.0101,0.0102,0.0103,0,0,0,0,0,0.0146,0.0155,0.0151,0.0151,0.0145,0.014,0.0138,0.0133,0.0129,0.0133,0.0123,0.012,0.0102,0.0105,0.0103,0.0106,0.0077,0.0076,0.0076,0.01,0.0102,0.0103,0,0,0,0,0,0,0.0158,0.0155,0.0151,0.0159,0.0153,0.014,0.0142,0.0135,0.013,0.013,0.0118,0.0116,0.0112,0.0103,0.0107,0.0095,0.0088,0.0087,0.0107,0.0108,0.0109,0.0123,0.0101,0,0,0,0,0,0.0163,0.0171,0.0161,0.0168,0.0165,0.0153,0.015,0.0145,0.0138,0.0136,0.0128,0.0117,0.0106,0.0104,0.0094,0.0089,0.0075,0.0087,0.0088,0.0089,0.0098,0.0073,0.0073,0.0074,0.0074,0.0074,0,0,0.017,0.0169,0.0173,0.0171,0.0165,0.0168,0.0153,0.0152,0.0156,0.0134,0.0139,0.0122,0.0105,0.01,0.0097,0.0094,0.0081,0.0089,0.009,0.0098,0.0073,0.0073,0.0073,0.0074,0.0074,0.0074,0,0,0.0186,0.0186,0.0196,0.0194,0.0188,0.0181,0.0182,0.0171,0.0169,0.0166,0.0149,0.0134,0.0123,0.0109,0.0101,0.01,0.0086,0.0097,0.0116,0.0092,0.0092,0.0091,0.0073,0.007,0.0098,0.0098,0.0098,0,0.0194,0.0207,0.0198,0.0205,0.0209,0.019,0.02,0.0193,0.0182,0.0181,0.0173,0.0144,0.0128,0.0116,0.0116,0.0104,0.0091,0.0114,0.0094,0.0094,0.0093,0.0074,0.0071,0.0099,0.0099,0.0099,0.0099,0,0.0215,0.0226,0.0232,0.0239,0.024,0.0246,0.0236,0.0235,0.0227,0.0216,0.0203,0.0173,0.0159,0.0145,0.0132,0.0119,0.0111,0.0098,0.0094,0.0095,0.0074,0.0071,0.0101,0.0101,0.01,0.01,0,0,0.0234,0.0245,0.0249,0.0261,0.026,0.0265,0.0271,0.027,0.0278,0.0253,0.0256,0.0221,0.0201,0.019,0.0163,0.0139,0.0117,0.0122,0.012,0.011,0.007,0.0066,0.0062,0.0102,0.0102,0.0102,0.0057,0,0.0254,0.028,0.028,0.0307,0.0319,0.0311,0.0321,0.0317,0.0307,0.0305,0.0263,0.0256,0.022,0.0213,0.0182,0.0137,0.0111,0.0131,0.0066,0.0064,0.0065,0.0059,0.0101,0.0054,0.0053,0.0053,0.0052,0,0.0276,0.0292,0.0323,0.0347,0.0352,0.0366,0.0382,0.039,0.0376,0.0368,0.0343,0.0313,0.0276,0.0245,0.0167,0.0183,0.0133,0.0091,0.0088,0.0077,0.0055,0.0052,0.0047,0.0047,0.0047,0.0048,0.0048,0,0.0297,0.0325,0.0354,0.0362,0.0382,0.0398,0.0411,0.041,0.0427,0.0411,0.0417,0.036,0.0343,0.0268,0.0182,0.0177,0.0095,0.0075,0.0021,0.002,0.0027,0.0027,0.0019,0.0019,0.0019,0.0019,0.0019,0,0.0319,0.0344,0.0369,0.0386,0.0429,0.0431,0.0471,0.0474,0.0482,0.0508,0.0456,0.0456,0.0349,0.0288,0.02,0.0105,0.0106,0.0027,0.0008,0.0037,0.004,0.0024,0.0025,0.0018,0.0018,0.0018,0.0019,0,0.0336,0.0351,0.039,0.0422,0.0441,0.0473,0.0523,0.0547,0.0552,0.0583,0.0584,0.0532,0.0455,0.0342,0.022,0.014,0.0041,0.0005,0.0053,0.0037,-0.0022,-0.0019,-0.0057,-0.0058,-0.0058,-0.0058,-0.0059,0,0.0344,0.0366,0.0422,0.0453,0.0473,0.0522,0.056,0.0583,0.0613,0.0631,0.0647,0.0588,0.0538,0.0367,0.0239,0.0069,0.0039,-0.0016,-0.0029,-0.0015,-0.003,-0.0027,-0.0023,-0.0059,-0.006,-0.006,-0.006,0,0.036,0.0383,0.0416,0.0483,0.0532,0.059,0.0644,0.0673,0.0703,0.0708,0.0701,0.0613,0.0525,0.0378,0.0246,0.0121,0.0017,-0.0021,-0.0021,-0.0034,-0.0019,-0.0032,-0.0028,-0.0061,-0.0061,-0.0061,-0.0061,0,0.0375,0.0401,0.0449,0.0509,0.0575,0.0641,0.0668,0.0705,0.0736,0.075,0.0746,0.0648,0.0589,0.0406,0.0285,0.0161,0.0122,0.007,0.0064,0.0064,0.0106,0.0144,0.0139,0,0,0,0,0,0.0385,0.0418,0.0471,0.054,0.0606,0.065,0.0718,0.0738,0.077,0.077,0.076,0.0677,0.0504,0.043,0.0306,0.0265,0.0094,0.0113,0.0029,-0.0069,-0.0068,-0.0041,0,0,0,0,0,0,0.0392,0.0442,0.047,0.0557,0.0608,0.0687,0.0736,0.0757,0.0755,0.0764,0.0675,0.0635,0.0466,0.0576,0.03,0.0264,0.019,0.0034,0.0031,-0.007,-0.0069,-0.0068,-0.0039,0,0,0,0,0]}]]